This is the latest recevied weather packets stored in our database for station/object DG4DAA-13. If no packets are shown the sender has not sent any weather packets the latest 1 day(s).
| Time | Temp. | Humidity | Pressure | Rain* | Wind** | Luminosity | Snow |
|---|---|---|---|---|---|---|---|
| 1778018910 | 11.11° C | 93% | 1009.3 hPa | 4.57 mm | 0 m/s | - | - |
| 1778018899 | 11.11° C | 93% | 1009.3 hPa | 4.57 mm | 0 m/s | - | - |
| 1778017099 | 11.11° C | 92% | 1009.5 hPa | 4.57 mm | 0 m/s | - | - |
| 1778015299 | 11.11° C | 92% | 1009.6 hPa | 3.05 mm | 0 m/s | - | - |
| 1778013533 | 11.67° C | 91% | 1009.8 hPa | 3.56 mm | 0 m/s | - | - |
| 1778013533 | 11.67° C | 91% | 1009.8 hPa | 3.56 mm | 0 m/s | - | - |
| 1778013499 | 11.67° C | 91% | 1009.8 hPa | 3.56 mm | 0 m/s | - | - |
| 1778011699 | 11.67° C | 90% | 1009.8 hPa | 3.56 mm | 0 m/s | - | - |
| 1778009899 | 11.67° C | 89% | 1009.9 hPa | 2.79 mm | 0 m/s | - | - |
| 1778008107 | 11.67° C | 88% | 1009.9 hPa | 1.52 mm | 0 m/s | - | - |
| 1778008099 | 11.67° C | 88% | 1009.9 hPa | 1.52 mm | 0 m/s | - | - |
| 1778006299 | 12.22° C | 87% | 1009.9 hPa | 0 mm | 0 m/s | - | - |
| 1778004499 | 12.22° C | 87% | 1010 hPa | 0 mm | 0 m/s | - | - |
| 1778002699 | 12.22° C | 86% | 1009.9 hPa | 0 mm | 0 m/s | - | - |
| 1778000899 | 12.78° C | 85% | 1010 hPa | 0 mm | 0 m/s | - | - |
| 1777999100 | 13.33° C | 85% | 1010.1 hPa | 0 mm | 0 m/s | - | - |
| 1777997300 | 13.33° C | 85% | 1010.2 hPa | 0 mm | 0 m/s | - | - |
| 1777995500 | 13.33° C | 85% | 1010.4 hPa | 0 mm | 0 m/s | - | - |
| 1777993700 | 13.33° C | 87% | 1010.4 hPa | 0 mm | 0 m/s | - | - |
| 1777991900 | 13.33° C | 87% | 1010.6 hPa | 0 mm | 0 m/s | - | - |
| 1777990100 | 13.33° C | 88% | 1010.4 hPa | 0 mm | 0 m/s | - | - |
| 1777988300 | 13.89° C | 89% | 1010.8 hPa | 0.51 mm | 0 m/s | - | - |
| 1777986500 | 13.89° C | 90% | 1011.1 hPa | 1.52 mm | 0 m/s | - | - |
| 1777984700 | 13.89° C | 89% | 1011.1 hPa | 3.3 mm | 0 m/s | - | - |
| 1777982903 | 13.89° C | 89% | 1011.2 hPa | 2.29 mm | 0 m/s | - | - |
* Rain latest hour (hover to see other rain measurements)
** Current wind speed in m/s (hover to see current wind gust speed)